Temp
23 24 25 25 27 27 27 27 26 24 25 24 24 24 24 25 25 25 25 24 24 26
24 23 26 25 25 26 26 26 25 25 25 24 24 24 24 24 24 24 24 24 24 24
25 24 24 24 24 25 25 25 25 24 25 25 25 24 24 25 24 24 24 25 24 24
25 25 24 25 24 24 24 24 24 24 25 25 25 24 24 24 24 24 24 25 25 25
26 25 26 25 25 25 24 24 24 24 24 24 24 24 24 24 25 25 25 25 25 25
26 26 26 26 25 25 24 24 25 24 24 24 24 24 24 24 24 25 24 25 25 24
26 26 26 26 25 25 24 24 25 25 24 24 24 24 24 24 24 24 25 24 24 25
25 25 26 26 25 25 25 24 24 25 24 24 24 25 24 24 24 24 24 24 24 25
25 25 24 24 24 24 24 24 24 24 24 24 25 25 24 23 24 24 24 25 24 24
24 24 24 24 24 24 24 24 24 24 24 24 24 24 23 23 23 23 23 24 23 23
22 22 22 23 23 23 24 24 24 24 24 24 23 23 23 23 22 23 22 22 22 22
22 22 22 22 23 23 23 23 23 24 24 23 21 22 22 22 20 20 19 19 19 19
20 21 21 22 22 22 22 21 20 20 20 20 18 19 19 20 19 19 18 17 16 18
19 18 19 20 20 20 20 19 19 18 18 18 18 18 19 19 18 19 18 17 17 16
Height
831 834 835 836 835 837 837 838 840 843 844 846 847 848 850 850 850 851 852 852 851 849
827 829 830 832 835 836 837 837 839 841 842 844 845 846 847 848 849 850 850 850 850 849
821 825 827 830 833 834 835 836 837 839 841 842 844 844 845 846 848 849 849 847 849 848
816 820 823 825 828 830 832 833 834 836 838 839 840 842 842 844 845 846 846 846 846 846
811 815 818 821 823 826 828 830 831 833 835 836 839 840 839 841 842 842 843 843 843 844
804 808 811 814 819 821 823 826 828 830 832 835 837 838 839 838 840 840 840 840 840 841
800 802 805 809 813 816 819 821 823 826 828 831 833 835 836 836 837 837 837 837 837 837
796 799 801 804 807 811 813 815 817 820 822 826 828 830 832 833 833 834 834 835 835 835
791 794 796 800 803 806 808 811 813 815 816 819 821 822 825 828 829 830 831 831 832 833
788 791 793 795 798 801 803 806 808 810 812 814 816 817 820 823 825 827 829 829 830 831
786 788 789 791 792 794 797 799 802 804 806 809 810 812 814 817 820 823 824 826 827 828
784 785 785 786 787 789 791 793 796 798 800 803 805 807 808 811 815 818 821 823 824 826
781 781 781 782 783 784 787 790 791 793 795 798 800 802 803 806 811 815 818 821 821 823
776 778 779 780 782 782 785 787 790 793 794 796 798 800 801 801 806 812 815 818 821 822
Wind_Speed
16 14 12 12 11 11 10 9 8 10 8 7 7 6 5 4 4 3 4 5 6 7
17 16 14 11 10 13 11 9 9 11 10 9 9 9 8 6 5 5 6 7 7 9
19 18 18 13 14 11 9 9 9 10 10 10 10 9 8 7 7 7 7 9 6 6
20 20 19 17 16 14 12 11 9 10 10 8 8 9 9 7 8 9 9 8 6 6
20 19 19 19 18 15 14 12 11 10 10 10 7 8 7 7 8 8 9 8 7 7
21 21 21 20 19 17 15 14 13 12 11 10 9 9 10 8 9 10 10 9 8 8
21 22 22 20 20 18 17 16 15 14 12 12 10 11 12 10 10 10 10 9 9 9
17 19 19 19 19 19 18 18 18 16 15 14 13 13 11 10 11 11 10 10 9 10
16 16 18 19 19 19 20 19 18 18 18 17 17 16 15 13 12 12 12 11 10 10
14 16 17 19 20 21 20 19 19 18 18 19 17 18 18 17 11 11 12 11 10 10
12 15 15 17 19 20 20 21 21 19 18 18 16 18 17 15 11 9 8 6 6 7
8 9 13 16 17 18 19 19 20 19 18 18 18 18 14 11 7 6 5 4 3 3
11 12 11 10 12 14 12 11 9 11 12 15 14 13 11 10 7 9 8 6 4 5
11 14 17 16 19 17 15 13 13 11 12 12 13 15 14 14 13 11 11 8 7 4
Wind_Direction
218 227 231 223 232 224 225 215 196 204 207 216 221 222 228 249 258 267 276 278 273 281
211 219 232 233 226 231 234 228 219 212 210 220 229 230 232 244 253 266 269 270 262 266
215 217 223 223 231 237 235 235 227 223 212 223 233 231 228 243 250 263 271 271 243 265
215 218 221 223 227 231 233 234 238 237 242 231 248 236 234 228 256 261 261 271 268 272
218 220 222 226 226 224 226 230 237 241 238 238 240 237 244 250 266 253 256 252 251 258
221 220 223 224 227 228 224 224 231 235 236 243 251 253 256 257 255 257 258 252 253 260
226 225 224 223 224 223 224 225 225 232 235 239 246 255 257 256 257 256 259 256 253 259
230 232 229 225 221 221 219 222 224 224 228 234 238 243 250 258 263 255 257 263 264 259
227 229 227 225 223 217 218 218 219 224 227 228 233 236 245 246 253 258 263 265 263 265
226 229 226 224 222 221 220 220 220 222 225 227 231 237 240 248 247 247 257 260 259 265
222 229 227 224 220 219 219 218 218 220 221 225 225 227 231 242 242 244 239 238 250 264
226 233 227 223 223 222 217 217 216 215 213 212 211 219 229 229 194 197 209 211 215 223
250 247 234 227 207 196 197 187 184 196 189 189 195 190 181 168 179 172 169 153 134 171
270 244 237 233 236 235 208 198 193 182 179 175 180 178 187 176 158 168 153 142 125 115